W1BKW Weather Reports


time (UTC)temp
F
wind
direction
speed
knots
gust
knots
rain 1hr
in
rain 24hr
in
rain mn
in
humidity
%
barometer
mb
20260506003557 58 146 0.0 0.9 0.00 0.05 0.05 99 1005.3
20260506002056 59 124 1.7 2.6 0.00 0.05 0.05 99 1004.5
20260506000553 59 184 0.9 2.6 0.00 0.05 0.05 96 1004.4
20260505235051 59 130 2.6 2.6 0.00 0.05 0.05 99 1004.7
20260505233548 60 163 0.0 4.3 0.00 0.05 0.05 92 1004.4
20260505232046 60 131 1.7 1.7 0.00 0.05 0.05 99 1004.6
20260505230544 60 178 0.9 1.7 0.00 0.05 0.05 97 1004.6
20260505225039 62 233 4.3 7.0 0.05 0.05 0.05 87 1004.9
20260505223536 62 254 4.3 7.0 0.07 0.04 0.04 86 1004.5
20260505222036 62 303 1.7 2.6 0.05 0.03 0.03 89 1004.1
20260505220533 66 284 9.6 18.2 0.00 0.00 0.00 78 1004.1
20260505215032 75 211 2.6 4.3 0.00 0.00 0.00 50 1001.1
20260505213530 76 230 2.6 5.2 0.00 0.00 0.00 48 1000.6
20260505212026 77 143 2.6 6.1 0.00 0.00 0.00 46 1000.6
20260505210522 79 125 2.6 4.3 0.00 0.00 0.00 45 1000.7
20260505205020 78 193 4.3 7.0 0.00 0.00 0.00 44 1000.4
20260505203517 78 161 0.9 6.1 0.00 0.00 0.00 46 1000.6
20260505202012 80 109 2.6 7.8 0.00 0.00 0.00 43 1000.5
20260505200510 80 188 5.2 9.6 0.00 0.00 0.00 37 1000.4
20260505195007 79 195 7.0 21.7 0.00 0.00 0.00 37 1000.7
20260505193501 79 235 14.8 20.0 0.00 0.00 0.00 39 1000.7
20260505192000 80 129 5.2 9.6 0.00 0.00 0.00 36 1000.9
20260505190456 79 232 10.4 17.4 0.00 0.00 0.00 42 1000.8
20260505184951 78 36 5.2 13.0 0.00 0.00 0.00 42 1001.1
20260505183448 77 208 3.5 13.9 0.00 0.00 0.00 43 1001.5
20260505181943 77 232 10.4 20.0 0.00 0.00 0.00 45 1001.4
20260505180440 76 281 12.2 18.2 0.00 0.00 0.00 45 1001.8
20260505174936 76 268 7.8 13.9 0.00 0.00 0.00 45 1002.1
20260505173432 76 193 6.1 9.6 0.00 0.00 0.00 46 1002.4
20260505171932 76 156 7.0 9.6 0.00 0.00 0.00 45 1002.7
20260505170428 74 346 12.2 20.0 0.00 0.00 0.00 47 1002.9
20260505164927 73 199 7.0 12.2 0.00 0.00 0.00 48 1003.3
20260505163427 72 220 6.1 14.8 0.00 0.00 0.00 49 1003.4
20260505161924 73 247 11.3 18.2 0.00 0.00 0.00 49 1003.8
20260505160422 73 211 3.5 11.3 0.00 0.00 0.00 48 1004.1
20260505151913 69 238 2.6 5.2 0.00 0.00 0.00 51 1004.7
20260505150410 68 176 0.0 8.7 0.00 0.00 0.00 53 1005.0
20260505140357 66 229 4.3 7.0 0.00 0.00 0.00 54 1004.7
20260505124840 60 176 3.5 12.2 0.00 0.00 0.00 63 1005.3
20260505123336 59 180 3.5 6.1 0.00 0.00 0.00 64 1005.4
20260505121832 58 177 0.9 1.7 0.00 0.00 0.00 64 1005.4
20260505120327 57 183 1.7 1.7 0.00 0.00 0.00 66 1006.0
20260505114826 56 204 2.6 5.2 0.00 0.00 0.00 68 1006.0
20260505113321 56 222 6.1 11.3 0.00 0.00 0.00 69 1005.8
20260505111821 56 236 2.6 6.1 0.00 0.00 0.00 70 1005.7
20260505110317 54 255 3.5 5.2 0.00 0.00 0.00 74 1005.9
20260505101815 54 231 3.5 6.1 0.00 0.00 0.00 72 1005.9
20260505100309 51 71 0.9 0.9 0.00 0.00 0.00 79 1005.9
20260505094809 51 216 0.9 4.3 0.00 0.00 0.00 77 1005.3
20260505093306 50 61 0.9 1.7 0.00 0.00 0.00 82 1005.7
20260505091804 49 130 0.0 0.9 0.00 0.00 0.00 82 1005.8
20260505090303 49 59 1.7 1.7 0.00 0.00 0.00 85 1005.7
20260505084801 49 134 0.9 1.7 0.00 0.00 0.00 84 1006.0
20260505083259 51 279 3.5 5.2 0.00 0.00 0.00 81 1005.9
20260505081754 50 128 0.0 0.9 0.00 0.00 0.00 79 1006.1
20260505080250 49 135 0.9 0.9 0.00 0.00 0.00 83 1006.0
20260505074746 50 279 1.7 1.7 0.00 0.00 0.00 83 1006.1
20260505073245 52 104 0.9 1.7 0.00 0.00 0.00 73 1006.0
20260505071745 54 140 0.0 1.7 0.00 0.00 0.00 69 1006.2
20260505070241 53 204 0.0 1.7 0.00 0.00 0.00 72 1006.0
20260505064737 55 224 4.3 6.1 0.00 0.00 0.00 66 1006.1
20260505063234 55 181 0.0 1.7 0.00 0.00 0.00 67 1006.1
20260505061731 49 161 0.9 2.6 0.00 0.00 0.00 81 1006.0
20260505060229 44 155 0.9 1.7 0.00 0.00 0.00 97 1006.1
20260505054730 44 146 0.0 1.7 0.00 0.00 0.00 97 1006.4
20260505053227 44 148 0.0 0.9 0.00 0.00 0.00 97 1006.3
20260505051725 44 190 0.0 0.9 0.00 0.00 0.00 98 1006.3
20260505050224 44 190 0.0 0.9 0.00 0.00 0.00 96 1006.1
20260505041712 46 190 0.0 0.0 0.00 0.00 0.00 95 1005.7
20260505040209 46 190 0.0 0.0 0.00 0.00 0.00 91 1005.7
20260505034704 47 190 0.0 0.0 0.00 0.02 0.02 90 1005.4
20260505033201 47 190 0.0 0.9 0.00 0.02 0.02 90 1005.3
20260505031658 47 190 0.0 0.0 0.00 0.02 0.02 90 1005.3
20260505030159 48 190 0.0 0.0 0.00 0.02 0.02 89 1005.3
20260505024657 48 190 0.0 0.9 0.00 0.02 0.02 88 1005.6
20260505023154 49 190 0.0 0.0 0.00 0.02 0.02 88 1005.5
20260505021651 50 190 0.0 0.0 0.00 0.02 0.02 91 1005.6
20260505020151 50 191 0.0 0.0 0.00 0.02 0.02 93 1005.7
20260505014648 50 191 0.0 0.0 0.00 0.02 0.02 94 1005.4
20260505013145 51 179 0.0 0.0 0.00 0.02 0.02 93 1005.4
20260505011641 51 184 0.0 0.9 0.00 0.02 0.02 91 1005.2
20260505010136 51 159 0.0 0.0 0.00 0.02 0.02 88 1005.1
20260505004632 51 158 0.0 0.9 0.00 0.02 0.02 90 1005.0